Tracking 30995 objects as of 6-Jul-2025
HD Live streaming from Space Station
objects crossing your sky now

OBJECT B

Track OBJECT B now!
10-day predictions


NORAD ID: 56847
Int'l Code: 2023-081B
Perigee: 365.8 km
Apogee: 369.6 km
Inclination: 97.3 °
Period: 91.8 minutes
Semi major axis: 6738 km
RCS: Unknown
Launch date: June 7, 2023
Source: (TBD)
Launch site: Jiuquan Satellite Launch Center, China (JSC)
Your satellite tracking list
Your tracking list is empty




NASA's NSSDC Master Catalog

Two Line Element Set (TLE):
1 56847U 23081B   25186.94669919  .00118840  00000-0  10026-2 0  9992
2 56847  97.3286 266.7882 0002816 194.1406 165.9778 15.69422699116169
Source of the keplerian elements: AFSPC